Location: Staunton
(38.1490°N, 79.0720°W)
Time: 01:13:58
(UTC-04:00)

ISS - Pass Details

Date: 22 March 2018
Orbit: 402 x 408 km, 51.6° (Epoch: 20 July)

Event Time Altitude Azimuth Distance (km) Brightness Sun altitude
Rises 20:47:36 0° 206° (SSW) 2,334 0.2 -15.9°
Reaches altitude 10° 20:49:50 10° 195° (SSW) 1,478 -1.0 -16.3°
Enters shadow 20:51:48 24° 165° (SSE) 893 -2.4 -16.7°
